Regional Weather Roundup
Issued by NWS

Home | Current Version | Previous Version | Graphics & Text | Print | Product List | Glossary On
Versions: 1 2 3 4 5 6 7 8 9 10 11 12 13 14 15 16 17 18 19 20 21 22 23 24 25 26 27 28 29 30 31 32 33 34 35 36 37 38 39 40 41 42 43 44 45 46 47 48 49 50
000
ASUS43 KLMK 041502
RWRKY
KENTUCKY REGIONAL WEATHER ROUNDUP
NATIONAL WEATHER SERVICE LOUISVILLE KY
1100 AM EDT MON MAY 04 2015

NOTE "FAIR" INDICATES FEW OR NO CLOUDS BELOW 12,000 FEET
WITH NO SIGNIFICANT WEATHER AND/OR OBSTRUCTIONS TO VISIBILITY.

KYZ001>023-026-027-061>063-070>075-041600-
WESTERN AND SOUTH CENTRAL KENTUCKY

CITY           SKY/WX    TMP DP  RH WIND       PRES   REMARKS
PADUCAH        PTSUNNY   75  58  55 SW7       30.19R
HENDERSON      PTSUNNY   73  54  49 SW15      30.17S
OWENSBORO      PTSUNNY   71  58  63 SW10      30.20R
HOPKINSVILLE   NOT AVBL
BOWLING GREEN  CLOUDY    74  53  48 SW12      30.24R
GLASGOW        NOT AVBL
$$

KYZ024-025-028>034-038-045-046-053-041600-
NORTH CENTRAL KENTUCKY

CITY           SKY/WX    TMP DP  RH WIND       PRES   REMARKS
LOUISVILLE/SDF PTSUNNY   77  54  44 SW13      30.20R
LOUISVILLE/LOU MOSUNNY   73  53  49 S5        30.21R
FORT KNOX      NOT AVBL
$$

KYZ035>037-039>044-047>052-055>060-089>105-041600-
NORTHEAST KENTUCKY

CITY           SKY/WX    TMP DP  RH WIND       PRES   REMARKS
LEXINGTON      SUNNY     73  55  53 SW10      30.24S
COVINGTON      MOSUNNY   73  53  49 SW9       30.20R
FRANKFORT      MOSUNNY   75  53  46 SW10      30.22R
$$

KYZ054-064>069-076>088-106>120-041600-
SOUTHEAST KENTUCKY

CITY           SKY/WX    TMP DP  RH WIND       PRES   REMARKS
JACKSON        SUNNY     73  50  44 VRB5      30.29R
LONDON         SUNNY     75  46  35 SW10      30.29R
SOMERSET       NOT AVBL
MIDDLESBORO    SUNNY     70  54  56 CALM      30.31R
MONTICELLO     SUNNY     76  52  43 SW13      30.31R
$$



USA.gov is the U.S. government's official web portal to all federal, state and local government web resources and services.